Regional Weather Roundup
Issued by NWS

Home | Current Version | Previous Version | Graphics & Text | Print | Product List | Glossary On
Versions: 1 2 3 4 5 6 7 8 9 10 11 12 13 14 15 16 17 18 19 20 21 22 23 24 25 26 27 28 29 30 31 32 33 34 35 36 37 38 39 40 41 42 43 44 45 46 47 48 49 50
000
ASUS45 KTFX 310319
RWRMT
MONTANA REGIONAL WEATHER ROUNDUP
NATIONAL WEATHER SERVICE GREAT FALLS MT
900 PM MDT SUN AUG 30 2015

NOTE: "FAIR" INDICATES FEW OR NO CLOUDS BELOW 12000 FEET WITH NO
SIGNIFICANT WEATHER AND/OR OBSTRUCTIONS TO VISIBILITY.

MTZ001>007-043-310400-
WEST OF THE DIVIDE

CITY           SKY/WX    TMP DP  RH WIND       PRES   REMARKS
KALISPELL      LGT RAIN  52  46  80 W6        29.96R
MISSOULA       MOCLDY    52  47  83 S6        30.06R
BUTTE          MOCLDY    56  37  49 NW20G28   30.02R
MULLAN PASS    CLOUDY    41  40  96 VRB6      30.04R
DEER LODGE       N/A     52  39  62 N9G23     30.09R
EUREKA           N/A     55  39  54 S8          N/A
HAMILTON         N/A     54  45  71 SW3       30.07R
LIBBY            N/A     52  48  87 S3        29.96R
RONAN            N/A     54  45  71 SE7       30.05S
$$

MTZ008-052>055-310400-
SOUTHWEST MONTANA

CITY           SKY/WX    TMP DP  RH WIND       PRES   REMARKS
BOZEMAN        CLOUDY    63  41  44 NW7       29.88R
DILLON         PTCLDY    63  25  23 W14       29.95R
W YELLOWSTONE  MOCLDY    61  23  23 SW8       30.06R
THREE FORKS      N/A     66  27  23 N7        29.89R
TWIN BRIDGES     N/A     65  27  24 S1        29.93R
$$

MTZ009-010-012-014-046-048-049-054-310400-
EAST SLOPES AND CENTRAL MONTANA

CITY           SKY/WX    TMP DP  RH WIND       PRES   REMARKS
CUT BANK       CLOUDY    56  37  49 W26G38    29.83R
GREAT FALLS    CLOUDY    62  38  40 W32G41    29.87R
MALMSTROM AFB  LGT RAIN  65  39  38 W25G33    29.88R
HELENA         MOCLDY    61  38  42 W25G39    29.94R
$$

MTZ011-013-016-021-045-047-050-051-310400-
NORTH CENTRAL MONTANA

CITY           SKY/WX    TMP DP  RH WIND       PRES   REMARKS
HAVRE          CLOUDY    67  40  37 MISG      29.80R
LEWISTOWN      CLOUDY    64  43  46 W12       29.87R
N BAR RANCH    MOCLDY    59  52  77 W14       29.87R
CHINOOK          N/A     68  45  42 W16G22    29.80R
FORT BENTON      N/A     66  39  37 SW7       29.86R
$$

MTZ017>020-022>027-061-062-310400-
NORTHEAST MONTANA

CITY           SKY/WX    TMP DP  RH WIND       PRES   REMARKS
GLASGOW        MOCLDY    64  56  75 SW9       29.75R
JORDAN           N/A     65  54  67 N14       29.74F
SIDNEY         MOCLDY    72  48  43 SE9       29.73R
WOLF POINT     TSTM      66  59  78 W10G24    29.78R
MALTA            N/A     66  55  67 W10       29.75R
PLENTYWOOD       N/A     72  48  43 SE7       29.70F
POPLAR           N/A     70  50  49 SE7       29.70R
$$

MTZ028>42-056>058-310400-
SOUTHCENTRAL AND SOUTHEAST MONTANA

CITY           SKY/WX    TMP DP  RH WIND       PRES   REMARKS
BAKER          CLOUDY    74  52  46 N12       29.75R
BILLINGS       MOCLDY    80  44  27 SW7       29.75R
LIVINGSTON     PTCLDY    70  35  27 N9        29.87R
MILES CITY     LGT RAIN  70  58  65 E9        29.68F
FORSYTH          N/A     73  52  46 E3        29.70F
LAUREL           N/A     81  30  15 MISG      29.77R
ROUNDUP          N/A     65  47  52 CALM      29.73R
$$

REGIONAL REPORTS...DAKOTAS

CITY           SKY/WX    TMP DP  RH WIND       PRES   REMARKS
WILLISTON      MOCLDY    66  49  54 N3        29.71S
MINOT          MOCLDY    69  54  58 NW9       29.68R
DICKINSON      MOCLDY    70  51  51 NE8       29.71S
BEACH          RAIN      68  55  64 NW14      29.81R
CROSBY           N/A     59  54  82 S6        29.71S
BISMARCK       PTCLDY    80  56  43 N9        29.65R
GRAND FORKS    PTCLDY    76  69  79 S14       29.66R
FARGO          PTCLDY    76  68  76 S18G24    29.72R
BUFFALO SD       N/A     73  53  49 NE10      29.67S
RAPID CITY     CLOUDY    75  57  53 N8        29.77F
$$

REGIONAL REPORTS...WYOMING/IDAHO/WASHINGTON

CITY           SKY/WX    TMP DP  RH WIND       PRES   REMARKS
GILLETTE       CLOUDY    78  46  32 S14       29.81S
SHERIDAN       CLOUDY    71  53  52 N6        29.78S
BUFFALO WY     CLOUDY    76  43  30 CALM      29.88F
CODY           MOCLDY    73  36  25 SW5       29.91R
YELLOWSTONE LA   N/A     53  30  41 CALM      30.17R
IDAHO FALLS    CLEAR     69  27  20 S10       29.99R
SALMON         CLOUDY    64  34  32 NW9       29.97R
BOISE          CLEAR     71  39  31 N6        29.95R
SPOKANE        PTCLDY    61  40  45 SW7       29.94R
$$

REGIONAL REPORTS...ALBERTA

CITY           SKY/WX    TMP DP  RH WIND       PRES   REMARKS
EDMONTON       CLEAR     61  41  48 W3        29.51R
CALGARY        PTCLDY    57  32  38 W24G32    29.65R
LETHBRIDGE     PTCLDY    57  37  47 W17G24    29.76R
MEDICINE HAT   MOCLDY    66  37  34 SW26G37   29.67R
WATERTON GATE    N/A     50  37  62 SW14G25     N/A
CARDSTON         N/A     54  36  50 SW18G30     N/A
MILK RIVER       N/A     57  37  47 W15G28      N/A
ONEFOUR          N/A     63  36  36 W10         N/A
$$

REGIONAL REPORTS...SASKATCHEWAN

CITY           SKY/WX    TMP DP  RH WIND       PRES   REMARKS
SWIFT CURRENT  PTCLDY    64  39  39 SW9       29.66R
REGINA         MOCLDY    63  57  82 SE9       29.66F
SASKATOON      PTCLDY    66  43  42 SW9       29.58R
CYPRESS HILLS    N/A     61  34  36 SW7         N/A
VAL MARIE        N/A     70  45  40 S17G24      N/A
ROCKGLEN         N/A     64  54  68 S9          N/A
ASSINIBOIA       N/A     63  43  48 NW6         N/A
$$


USA.gov is the U.S. government's official web portal to all federal, state and local government web resources and services.